Regional Weather Roundup
Issued by NWS Cleveland, OH

Home | Current Version | Previous Version | Text Only | Print | Product List | Glossary Off
Versions: 1 2 3 4 5 6 7 8 9 10 11 12 13 14 15 16 17 18 19 20 21 22 23 24 25 26 27 28 29 30 31 32 33 34 35 36 37 38 39 40 41 42 43 44 45 46 47 48 49 50

000
ASUS41 KCLE 200102
RWRCLE
OHIO REGIONAL WEATHER ROUNDUP
NATIONAL WEATHER SERVICE CLEVELAND, OH
900 PM EDT TUE AUG 19 2014

NOTE: "FAIR" INDICATES FEW OR NO CLOUDS BELOW 12,000 FEET WITH NO
SIGNIFICANT WEATHER AND/OR OBSTRUCTIONS TO VISIBILITY.

OHZ001>008-015>018-024>027-034-035-043-044-200200-
   NORTHWEST OHIO

CITY           SKY/WX    TMP DP  RH WIND       PRES   REMARKS
DEFIANCE       CLOUDY    66  63  90 S6        29.80R
FINDLAY        LGT RAIN  69  64  84 N3        29.80F
TOLEDO EXPRESS LGT RAIN  68  65  90 SW7       29.78F
TOLEDO EXEC    LGT RAIN  70  64  81 W7        29.79F
LIMA           LGT RAIN  72  67  84 CALM      29.83R
$$

OHZ009>014-019>023-028>033-038-089-200200-
   NORTHEAST OHIO

CITY           SKY/WX    TMP DP  RH WIND       PRES   REMARKS
CLE-HOPKINS    TSTM      67  65  93 NW8G20    29.88R FOG
CLE-LAKEFRONT  LGT RAIN  68  65  90 N14G23    29.85R
CUY CO. ARPT   LGT RAIN  68  66  94 NW17G29   29.88R
LORAIN-ELYRIA  LGT RAIN  71  66  84 SE7       29.84F
ASHTABULA      PTCLDY    72  66  81 SE3       29.84R
AKRON-CANTON   PTCLDY    77  66  68 S7        29.83S
WOOSTER        MOCLDY    75  68  78 SE5       29.84R
MANSFIELD      MOCLDY    72  68  87 S7        29.85R THUNDER
YOUNGSTOWN     MOCLDY    70  65  84 SE6       29.85R
$$

OHZ042-051>053-060>062-070>072-077>081-200200-
  SOUTHWEST OHIO

CITY           SKY/WX    TMP DP  RH WIND       PRES   REMARKS
CINC-COVINGTON CLOUDY    80  67  64 CALM      29.84S
CINC-LUNKEN    CLOUDY    80  66  62 SW3       29.83R
HAMILTON       MOCLDY    78  69  73 SW3       29.83S
DAYTON         MOCLDY    79  68  69 SW9       29.84S
WRIGHT-PAT AFB MOCLDY    79  68  68 SW3       29.82S
DAYTON GENERAL PTCLDY    82  67  60 W6        29.83S
WILMINGTON     PTCLDY    75  69  81 CALM      29.84R
$$

OHZ036-037-039>041-045>050-054>059-063>069-073>076-082>088-200200-
  CENTRAL AND SOUTHEAST OHIO

CITY           SKY/WX    TMP DP  RH WIND       PRES   REMARKS
COLUMBUS       PTCLDY    84  67  56 S6        29.80F
OSU AIRPORT    PTCLDY    80  68  66 SW7       29.81S
BOLTON FIELD   CLEAR     75  70  85 SW6       29.82F
RICKENBACK AFB CLEAR     81  64  57 S5        29.81S
NEWARK         CLEAR     77  71  82 SE5       29.81F
MARION         CLEAR     78  66  66 W5        29.82R
LANCASTER      CLEAR     78  70  76 S3        29.82F
ZANESVILLE     CLEAR     78  69  73 S7        29.83S
NEW PHILLY     PTCLDY    73  70  90 SE6       29.83F
$$


USA.gov is the U.S. government's official web portal to all federal, state and local government web resources and services.